Location: ?????????
(41.2393°N, 22.9479°E)
Time: 05:26:16
(UTC+00:00)

OAO 3 Rocket - Pass Details

Date: 17 November 2025
Orbit: 613 x 661 km, 35.0° (Epoch: 09 December)

Event Time Altitude Azimuth Distance (km) Brightness Sun altitude
Rises 15:57:48 0° 248° (WSW) 2,922 8.8 -9.7°
Reaches altitude 10° 16:00:18 10° 240° (WSW) 2,006 7.1 -10.1°
Maximum altitude 16:04:34 36° 174° (S) 987 4.2 -10.9°
Enters shadow 16:08:33 11° 108° (ESE) 1,899 5.1 -11.6°
